Regional Weather Roundup
Issued by NWS

Home | Current Version | Previous Version | Graphics & Text | Print | Product List | Glossary On
Versions: 1 2 3 4 5 6 7 8 9 10 11 12 13 14 15 16 17 18 19 20 21 22 23 24 25 26 27 28 29 30 31 32 33 34 35 36 37 38 39 40 41 42 43 44 45 46 47 48 49 50
000
ASUS43 KLOT 201158
RWRIL

ILLINOIS REGIONAL WEATHER ROUNDUP
NATIONAL WEATHER SERVICE CHICAGO/ROMEOVILLE IL
700 AM CDT SAT SEP 20 2014

NOTE: "FAIR" INDICATES FEW OR NO CLOUDS BELOW 12,000 FEET WITH NO
SIGNIFICANT WEATHER AND/OR OBSTRUCTIONS TO VISIBILITY.

* THESE STATIONS ARE NOT UNDER NWS QUALITY CONTROL. THEY ALSO MAY NOT
  REPORT WEATHER SUCH AS PRECIPITATION OR FOG.

ILZ001-002-007-009-015-016-024-201300-
NORTHWEST ILLINOIS

CITY           SKY/WX    TMP DP  RH WIND       PRES   REMARKS
MOLINE         LGT RAIN  63  60  90 SW6       29.90F FOG
6HR MIN TEMP:  63; 6HR MAX TEMP:  66; 6HR PCP:  0.05;

$$

ILZ003-004-008-010-011-017-018-201300-
NORTH CENTRAL ILLINOIS

CITY           SKY/WX    TMP DP  RH WIND       PRES   REMARKS
ROCKFORD       NOT AVBL
$$

ILZ005-006-012>014-019>023-201300-
NORTHEAST ILLINOIS

CITY           SKY/WX    TMP DP  RH WIND       PRES   REMARKS
CHICAGO-OHARE  MOCLDY    63  54  72 SW14      29.93S
6HR MIN TEMP:  63; 6HR MAX TEMP:  65;

CHICAGO-MIDWAY CLOUDY    63  55  75 SW12      29.93S
6HR MIN TEMP:  63; 6HR MAX TEMP:  66;

AURORA         MOCLDY    56  52  86 CALM      29.95S FOG
6HR MIN TEMP:  54; 6HR MAX TEMP:  59;

WAUKEGAN       CLOUDY    63  55  75 SW15      29.87F
6HR MIN TEMP:  63; 6HR MAX TEMP:  65;

DUPAGE AIRPORT MOCLDY    59  54  83 S8        29.93F
6HR MIN TEMP:  58; 6HR MAX TEMP:  61;

WHEELING       MOCLDY    64  54  69 SW9       29.93F
6HR MIN TEMP:  64; 6HR MAX TEMP:  67;

NORTHERLY ISL    N/A     64  53  67 S8          N/A
$$

LMZ740>746-201300-
SOUTHERN LAKE MICHIGAN

STATION/POSITION SKY/WX   TEMP    WIND        PRES    VSBY  WAVE
                          AIR SEA DIR/SP/G                  HT/PER
                          (F)     (DEG/KT/KT) (MB)    (MI)  (FT/S)
SOUTHERN BUOY              65 64  210/ 17/ 21 1011.6F         4/ 5
WAUKEGAN HARBOR            65     230/ 15/ 19   N/A
HARRISON CRIB              66     220/ 20/ 28   N/A
BURNHAM HARBOR             64     190/  7/ 13   N/A
CALUMET HARBOR             64     210/  9/ 14 1012.9R
MICHIGAN CITY              62     160/ 16/ 22   N/A
MICHIGAN CITY 6N           64 65  200/ 16/ 19   N/A           3/ 3
ST. JOSEPH                 66 65  190/ 17/ 21   N/A           4/ 4
$$

ILZ025>027-034>036-040-047-049-050-058-095>099-201300-
WEST-CENTRAL ILLINOIS

CITY           SKY/WX    TMP DP  RH WIND       PRES   REMARKS
$$

ILZ028>032-037-038-041>044-048-051>054-059>061-201300-
CENTRAL ILLINOIS

CITY           SKY/WX    TMP DP  RH WIND       PRES   REMARKS
PEORIA         NOT AVBL
SPRINGFIELD    PTCLDY    64  59  83 S8        30.00R
6HR MIN TEMP:  62; 6HR MAX TEMP:  65;

TAYLORVILLE    NOT AVBL
$$

ILZ033-039-045-046-055>057-062-063-201300-
EAST-CENTRAL ILLINOIS

CITY           SKY/WX    TMP DP  RH WIND       PRES   REMARKS
CHAMPAIGN      PTCLDY    58  54  86 S8        30.03R
MATTOON        PTCLDY    58  54  86 S5        30.03R
$$

ILZ079-100>102-201300-
SOUTHWEST ILLINOIS

CITY           SKY/WX    TMP DP  RH WIND       PRES   REMARKS
ALTON          CLEAR     57  55  94 CALM      30.01S
CAHOKIA*       CLEAR     57  56  96 CALM      30.02R
$$

ILZ064>066-069>071-074>076-080>082-084>086-088>090-092>094-201300-
SOUTH-CENTRAL ILLINOIS

CITY           SKY/WX    TMP DP  RH WIND       PRES   REMARKS
CARBONDALE     CLOUDY    59  57  93 CALM      30.05R
6HR MIN TEMP:  54; 6HR MAX TEMP:  59;

MARION         MOCLDY    63  61  94 SE5       30.06R
$$

ILZ067-068-072-073-078-083-087-091-201300-
SOUTHEAST ILLINOIS

CITY           SKY/WX    TMP DP  RH WIND       PRES   REMARKS
LAWRENCEVILLE  FOG       53  52  96 CALM      30.06R VSB 1/4
$$

ABBREVIATIONS USED IN REMARKS
   TC - TEMPERATURE IN CELSIUS
  WCI - WIND CHILL INDEX
   HX - HEAT INDEX
  VSB - VISIBILITY
$$



USA.gov is the U.S. government's official web portal to all federal, state and local government web resources and services.